Location: Bacea
(45.9500°N, 22.6667°E)
Time: 00:32:18
(UTC+00:00)

USA 215 - Pass Details

Date: 16 October 2021
Orbit: 1099 x 1109 km, 123.0° (Epoch: 20 November)

Event Time Altitude Azimuth Distance (km) Brightness Sun altitude
Exits shadow 17:54:55 23° 44° (NE) 2,157 4.5 -23.9°
Maximum altitude 17:57:56 34° 1° (N) 1,744 4.4 -24.4°
Drops below altitude 10° 18:03:38 10° 300° (WNW) 2,967 6.5 -25.4°
Sets 18:06:21 0° 291° (WNW) 3,926 7.5 -25.8°
